Weather in Shiraz

Iran     29°37′03″N   52°30′17″E
temp.,
°C
wind,
m/s
gust,
m/s
humid.,
%
clouds,
%
prec.,
mm/h
press.,
hPa
HPBL,
m
12 august, fri
fri1201:30+28nne222818 0.0 100520
04:30+26e22293 0.0 100517
07:30+25ne11265 0.0 100746
10:30+29nne49192 0.0 10061982
13:30+33nne111390 0.0 10032744
16:30+33nne121470 0.0 10023063
19:30+29ne111370 0.0 10041025
22:30+26ne510100 0.0 1007398
13 august, sat
sat1301:30+23ne48120 0.0 1007255
04:30+21ne22150 0.0 100617
07:30+20ene23170 0.0 100866
10:30+25ene811100 0.0 10071550
13:30+30ne81170 0.0 10032388
16:30+32ne81050 0.0 10013178
19:30+29ne71070 0.0 1003329
22:30+25ne610120 0.0 1006293
14 august, sun
sun1401:30+23nne59150 0.0 1006225
04:30+21n33170 0.0 100625
07:30+21n23180 0.0 100851
10:30+26ne35130 0.0 10071242
13:30+30ene45110 0.0 10042398
16:30+32ese65110 0.0 10033229
19:30+30ssw11143 0.0 100319
22:30+28nw22150 0.0 100512
15 august, mon
mon1501:30+26n33140 0.0 100527
04:30+24n22155 0.0 100512
07:30+23n22164 0.0 100828
10:30+28ne241218 0.0 1008986
13:30+32ene44927 0.0 10052227
16:30+33ne2395 0.0 10032873
19:30+32ne23105 0.0 100448
22:30+29nne47125 0.0 1006158
16 august, tue
tue1601:30+26n44145 0.0 100735
04:30+25n22160 0.0 100712
07:30+25n22170 0.0 100818
10:30+29ne57130 0.0 10081760
13:30+33ne7790 0.0 10052664
16:30+34ene5773 0.0 10033405
19:30+31ne6984 0.0 1004229
22:30+28nne34100 0.0 100774